Terminal Aerodrome Forecast
Issued by NWS

Home | Current Version | Previous Version | Graphics & Text | Print | Product List | Glossary On
Versions: 1 2 3 4 5 6 7 8 9 10 11 12 13 14 15 16 17 18 19 20 21 22
000
FTUS45 KGGW 231800 AAA
TAFSDY
TAF AMD
KSDY 231849Z 2319/2418 29020G30KT P6SM SCT025
     FM240000 32015KT P6SM BKN030
     FM240600 32006KT P6SM SCT030
     FM241500 33005KT P6SM FEW020 BKN150
      AMD LTD TO CLD VIS AND WIND=

USA.gov is the U.S. government's official web portal to all federal, state and local government web resources and services.